Skip Page Navigation
NASA JPL Caltech
NASA Logo - Jet Propulsion Laboratory + View the NASA Portal
+ Center for Near-Earth Object Studies
JPL Home Earth Solar System Stars & Galaxies Technology
JPL Solar System Dynamics
BODIES ORBITS EPHEMERIDES TOOLS PHYSICAL DATA DISCOVERY FAQ SITE MAP
JPL Small-Body Database Browser
Search: [ help ]  
214749 (2006 TO60)
Classification: Main-belt Asteroid          SPK-ID: 2214749
Ephemeris | Orbit Diagram | Orbital Elements | Mission Design | Physical Parameters | Discovery Circumstances | Close-Approach Data ]

[ show orbit diagram ]
Orbital Elements at Epoch 2459000.5 (2020-May-31.0) TDB
Reference: JPL 14 (heliocentric ecliptic J2000)
 Element Value Uncertainty (1-sigma)   Units 
e .07100594305641833 5.6568e-08  
a 2.989069215189391 3.6316e-08 au
q 2.77682753670396 1.7419e-07 au
i 11.51761388638036 6.3273e-06 deg
node 35.51390275377699 2.6677e-05 deg
peri 186.7150791997699 4.8248e-05 deg
M 53.39056027108902 3.8683e-05 deg
tp 2458720.560384358796
(2019-Aug-25.06038436)
0.00020311 TDB
period 1887.567036553555
5.17
3.44e-05
9.418e-08
d
yr
n .1907217031387197 3.4758e-09 deg/d
Q 3.201310893674822 3.8895e-08 au
  Orbit Determination Parameters
   # obs. used (total)      314  
   data-arc span      5939 days (16.26 yr)  
   first obs. used      2003-02-01  
   last obs. used      2019-05-07  
   planetary ephem.      DE431  
   SB-pert. ephem.      SB431-N16  
   condition code      0  
   norm. resid. RMS      .61621  
   source      ORB  
   producer      Otto Matic  
   solution date      2019-May-30 08:21:33  

Additional Information
 Earth MOID = 1.76901 au 
 Jupiter MOID = 1.76896 au 
 T_jup = 3.222 
[ show covariance matrix ]

Ephemeris | Orbit Diagram | Orbital Elements | Mission Design | Physical Parameters | Discovery Circumstances | Close-Approach Data ]

Physical Parameter Table
Parameter Symbol Value Units Sigma Reference Notes
absolute magnitude H 15.5   n/a MPO433404  

214749 (2006 TO60)          Discovered 2006-Oct-13 by Spacewatch at Kitt Peak
Reference: 20090509/Numbers.arcLast Updated: 2009-05-11

[ show close-approach data ]
Ephemeris | Orbit Diagram | Orbital Elements | Mission Design | Physical Parameters | Discovery Circumstances | Close-Approach Data ]
ABOUT SSD CREDITS/AWARDS PRIVACY/COPYRIGHT GLOSSARY LINKS
FirstGov 2020-Jul-16 14:34 UT
(server date/time)  
NASA Home Page
Site Manager:   Ryan S. Park
Webmaster  Alan B. Chamberlin